Temp
48 48 49 49 49 48 48 49 49 49 48 48 47 47 50 44 43 42 43 46 46 51 51 54 55 58 58 57 57 58 58 59 59 57 57 56 56 56 56 54 54 54 53 52 52 51 51 52 53 55 57 56 57 57 56 55 54 54 56 57 57 56 55 56 56 59 63 66 66 64 63 62 61 60
49 49 48 48 49 48 49 48 48 48 48 48 49 47 46 48 49 43 44 45 43 49 49 52 53 55 56 56 57 57 57 58 58 56 56 56 56 55 56 55 54 53 53 52 50 49 50 51 53 54 55 54 54 54 54 54 54 55 56 55 56 56 57 57 58 60 62 63 62 61 61 61 60 60
51 49 49 48 49 48 49 49 49 49 50 48 49 49 49 48 47 45 43 44 45 48 50 50 50 51 53 55 54 55 55 58 58 55 54 56 56 56 56 56 54 54 53 51 50 51 52 52 52 53 54 54 54 53 53 54 55 54 54 53 54 56 57 58 58 60 62 62 62 62 61 60 60 60
49 48 48 48 48 48 49 50 49 49 50 49 49 49 49 48 46 45 44 45 47 45 49 49 50 51 53 52 54 53 55 57 56 55 54 55 56 56 55 55 54 53 52 51 52 52 52 51 51 52 52 51 51 52 50 53 53 52 51 52 53 54 56 56 57 59 60 61 61 60 59 60 60 60
48 48 48 48 49 48 50 48 49 50 49 50 49 49 48 48 48 48 45 45 45 46 45 47 50 51 51 53 52 52 51 52 53 55 54 54 54 54 53 53 54 52 52 51 50 51 50 50 50 49 48 49 50 49 49 50 49 50 50 48 48 50 53 55 56 56 58 59 59 58 59 59 59 58
50 47 48 50 49 47 48 47 50 49 49 50 50 48 48 47 48 46 48 44 44 45 45 46 48 49 49 49 52 50 50 50 50 52 53 54 54 53 52 53 54 52 52 50 50 50 50 49 49 50 49 49 49 50 50 49 49 48 47 46 46 49 51 51 52 52 54 56 57 57 57 58 58 58
47 47 48 48 49 49 48 46 46 48 49 49 48 47 47 47 46 47 46 46 44 43 45 43 48 47 48 47 50 51 51 50 50 50 50 51 53 53 52 52 54 52 50 50 50 50 50 50 49 49 50 49 49 49 49 49 49 47 47 46 47 47 46 47 47 48 48 51 53 54 56 55 56 58
48 47 47 48 47 48 48 46 46 46 46 47 47 47 45 46 45 44 44 45 44 42 43 42 45 46 46 46 49 51 50 50 50 50 49 50 50 49 51 51 52 52 51 50 50 50 50 49 49 49 49 49 49 49 50 50 49 48 47 47 46 46 46 46 45 45 47 49 51 52 53 53 55 57
50 49 50 49 48 47 47 46 46 46 46 46 46 45 45 45 45 45 44 43 43 42 41 42 40 43 45 47 46 48 47 48 48 48 48 49 48 48 47 50 53 51 51 50 50 49 49 49 49 49 49 49 48 49 49 49 49 49 48 48 48 48 47 46 46 46 46 46 46 49 52 52 53 57
51 51 51 51 50 49 50 47 46 45 45 45 46 45 45 44 43 43 42 42 42 42 40 41 41 39 43 43 43 47 46 44 45 46 47 46 46 46 47 48 50 51 51 48 49 49 48 49 49 49 49 49 48 49 49 49 49 49 48 49 49 49 48 48 47 46 45 45 45 45 47 50 52 54
51 52 51 51 51 51 51 50 50 48 46 47 46 47 46 46 47 45 43 42 42 41 41 38 39 40 41 42 42 44 45 45 43 43 43 44 46 45 44 45 48 49 48 48 49 48 48 49 49 49 49 49 49 49 48 49 49 49 49 49 48 48 48 48 48 47 46 46 45 45 45 46 50 52
52 52 52 52 52 52 51 52 52 52 49 46 46 45 46 45 44 43 43 42 41 41 40 38 38 37 37 40 40 43 42 43 42 44 41 40 42 43 44 44 45 46 45 45 46 49 49 49 49 49 49 49 49 48 49 50 51 50 49 48 47 47 47 48 48 48 48 47 47 46 46 45 44 48
51 52 52 52 52 54 55 53 52 52 51 49 48 47 46 45 43 43 44 42 41 38 39 39 38 38 40 38 40 41 41 40 38 40 39 39 41 42 42 44 43 43 43 44 45 46 46 46 47 47 47 48 49 49 49 49 50 49 47 47 47 47 47 47 47 48 48 48 47 46 46 46 45 44
52 53 54 55 56 54 54 50 47 46 47 50 51 50 47 47 44 43 43 42 42 42 41 39 37 39 38 37 37 37 38 40 40 40 39 38 39 40 41 43 40 42 42 43 43 44 46 45 45 45 45 47 47 47 47 48 49 48 47 47 47 47 47 47 47 47 47 47 47 47 46 46 46 45
52 53 54 55 55 53 52 50 45 45 45 45 46 46 47 48 46 43 41 40 41 43 40 37 37 37 36 37 37 37 39 38 37 38 38 38 38 37 36 37 41 40 43 42 40 42 44 43 43 44 44 44 45 46 47 48 48 47 47 46 46 46 46 45 45 45 45 46 46 47 46 46 46 46
53 53 53 53 54 54 53 52 49 47 45 44 44 43 43 43 44 44 42 40 38 37 37 37 37 36 36 36 36 36 36 37 36 36 36 36 36 36 36 35 36 41 43 40 39 40 43 42 42 42 44 45 45 46 47 47 46 46 46 46 45 45 45 44 44 43 43 43 44 44 45 45 45 44
54 53 53 52 52 53 54 53 52 51 48 44 42 42 43 42 42 41 42 43 41 38 39 38 36 35 35 36 36 39 37 36 35 36 35 35 34 35 35 36 37 40 42 39 38 39 41 42 41 41 43 43 44 45 46 47 46 46 46 45 44 44 44 44 44 43 43 42 43 43 43 43 43 43
52 52 52 51 50 49 51 52 51 51 49 47 46 45 43 41 40 40 40 38 40 41 40 38 37 36 37 37 36 38 38 36 36 35 35 35 35 35 35 37 38 40 42 38 36 36 40 40 40 39 41 43 43 44 45 46 46 45 45 44 44 44 44 43 43 43 43 43 43 42 42 42 42 42
50 49 51 50 50 50 50 51 51 51 49 47 45 44 41 39 37 38 38 37 36 38 37 36 36 36 35 36 36 36 36 37 37 37 36 36 36 36 36 36 37 37 38 38 35 34 38 38 39 40 41 42 42 43 44 45 45 45 44 44 44 44 44 43 43 43 43 43 42 42 42 41 41 41
47 47 49 48 48 50 51 48 45 47 48 47 45 42 38 37 37 38 40 41 41 40 38 36 35 35 35 40 37 37 36 36 35 36 36 34 34 33 32 32 35 34 34 36 36 35 35 36 38 40 41 40 40 41 41 43 45 44 44 44 45 44 43 42 43 42 42 42 42 43 42 41 41 40
45 46 46 47 48 48 47 43 41 42 45 46 44 42 39 38 38 38 39 39 39 39 39 39 40 39 39 38 39 39 39 37 37 34 32 32 31 30 30 32 32 32 34 36 37 36 34 36 37 38 39 40 39 40 41 41 42 43 44 44 45 44 43 43 42 42 42 42 42 42 42 42 41 41
42 46 51 48 46 45 43 39 39 40 44 44 42 42 40 37 37 37 36 37 36 39 39 39 38 38 38 39 39 39 39 39 40 34 31 33 31 31 31 30 31 32 34 36 38 33 33 36 36 36 38 38 37 38 39 39 40 43 43 43 43 44 44 43 43 42 42 42 42 42 42 41 41 43
39 40 43 45 44 43 40 38 39 40 43 43 42 40 39 37 37 33 34 34 33 32 33 32 34 35 37 36 34 37 39 39 40 35 35 34 31 30 31 31 31 30 30 33 36 34 34 34 36 36 37 36 37 38 40 39 39 40 39 40 41 43 43 44 43 42 42 42 42 42 41 41 41 43
39 40 40 40 38 39 39 39 38 39 40 40 37 35 34 36 35 32 32 34 33 32 33 31 31 32 32 32 33 33 33 36 38 37 35 34 33 32 31 31 31 30 30 32 37 35 36 36 36 38 39 36 34 38 41 42 40 40 39 40 38 42 43 43 43 43 42 42 42 41 41 41 41 42
38 38 39 40 40 39 39 39 38 38 38 38 36 34 34 33 34 34 32 34 39 33 33 33 32 33 32 32 32 31 32 34 35 35 35 35 34 33 32 31 31 31 34 37 41 37 36 39 37 39 38 38 39 38 39 38 38 39 40 40 38 39 40 41 42 43 43 42 41 41 41 41 41 42
37 38 38 39 39 38 38 37 38 38 38 38 38 36 37 36 36 34 34 32 33 31 31 30 30 31 30 29 31 32 33 34 36 35 34 35 35 34 34 34 33 32 34 37 40 40 38 36 38 37 38 37 37 38 37 37 37 39 40 38 36 38 37 39 39 41 42 42 42 41 41 40 40 41
36 36 37 38 39 37 37 37 37 37 37 38 38 37 36 36 36 36 34 33 32 30 30 30 30 30 29 30 30 31 32 33 34 34 35 35 35 36 37 37 37 36 37 38 40 40 39 37 40 38 37 38 36 37 37 36 36 36 37 36 37 37 38 35 37 39 40 41 41 41 40 40 40 39
38 38 37 39 36 37 37 37 37 37 37 36 36 36 36 36 36 35 33 32 31 31 30 30 29 30 30 30 30 32 34 34 34 35 35 35 36 36 36 37 38 39 38 38 38 38 38 37 38 39 39 37 35 34 34 39 40 39 38 36 36 36 36 36 36 37 38 37 38 39 39 40 41 40
40 38 37 37 37 37 37 37 37 37 37 36 36 36 35 39 33 32 31 30 30 29 30 30 30 30 31 32 33 34 34 34 34 34 35 35 35 35 36 36 36 37 39 39 38 38 38 37 37 38 39 39 36 37 36 36 38 39 38 38 35 34 36 36 36 37 37 36 36 35 36 38 38 39
37 37 37 37 37 38 38 38 37 35 35 36 37 37 36 31 31 31 30 30 30 29 30 30 31 31 31 31 32 33 32 31 31 32 32 32 33 33 34 34 34 34 35 37 38 38 38 37 37 37 36 37 38 37 37 36 37 39 39 38 38 38 36 36 36 36 36 37 36 35 35 34 35 36
37 38 38 38 37 37 36 36 35 35 35 34 33 31 31 32 31 32 31 30 30 30 30 30 30 30 31 31 31 30 30 31 31 32 32 32 32 32 32 32 33 34 35 35 36 36 36 36 37 36 35 36 37 37 38 38 37 38 39 39 38 35 37 37 37 37 37 36 34 33 33 33 33 36
39 38 37 37 36 35 34 34 33 31 31 31 32 30 29 30 29 33 35 35 30 29 30 29 29 29 30 30 30 31 30 30 31 32 32 32 32 34 34 32 32 33 33 34 34 35 35 36 36 37 36 36 34 36 37 37 36 36 36 38 38 39 39 39 39 40 40 38 35 35 34 32 32 34
36 36 35 34 33 32 31 29 26 27 26 26 28 28 30 30 30 29 28 30 30 30 29 29 29 30 30 31 31 32 32 32 33 33 32 33 33 34 34 32 32 32 32 32 33 34 33 34 36 37 37 37 37 37 36 33 35 37 35 35 35 35 35 36 37 37 37 35 35 35 35 34 35 36
35 33 32 30 29 27 27 25 24 23 22 21 24 24 29 27 27 29 29 28 29 29 29 29 30 30 31 31 32 32 32 33 34 35 34 34 34 32 32 31 32 33 33 33 33 34 35 35 36 37 37 37 39 39 38 35 34 36 36 35 35 35 37 37 38 39 38 37 36 35 34 34 34 36
32 31 30 26 25 23 23 23 24 24 23 24 23 25 25 26 27 27 27 28 28 29 30 31 31 32 31 31 32 31 32 32 33 34 34 34 33 32 32 31 31 32 33 33 33 35 35 35 35 34 34 35 34 37 41 40 36 35 36 36 36 36 36 38 37 38 38 36 34 35 35 34 34 34
29 27 27 23 23 21 23 24 23 23 23 22 24 26 25 26 26 26 27 30 31 31 32 31 32 32 32 32 32 32 32 32 32 32 32 32 32 32 32 32 32 33 33 33 33 35 35 34 33 31 30 31 31 30 33 41 41 38 34 34 35 36 36 37 37 37 36 35 35 35 34 35 35 34
25 22 23 23 24 23 25 23 22 22 25 25 25 25 25 26 27 29 31 32 32 32 32 32 32 32 32 32 32 32 32 32 31 32 32 32 32 32 32 32 32 33 33 33 34 34 34 33 33 32 30 29 28 28 31 36 38 41 38 34 35 35 35 35 34 35 35 36 35 35 35 35 33 34
25 22 24 25 27 27 24 24 23 23 24 25 26 26 27 28 29 30 32 32 33 32 32 32 32 32 32 33 32 32 32 32 32 32 32 32 32 31 32 31 32 32 33 34 34 34 34 33 32 32 31 29 28 28 29 34 34 35 38 37 35 36 35 34 34 34 35 35 35 34 34 33 33 34
28 26 25 25 27 26 24 24 24 24 27 27 27 27 28 28 29 29 30 30 31 31 32 32 32 33 32 32 32 32 31 31 31 31 32 32 32 31 32 32 31 32 32 32 33 33 33 32 32 32 32 31 30 31 33 32 33 35 35 38 37 35 35 35 34 35 34 33 32 33 32 34 34 35
27 27 27 26 28 26 26 24 24 25 27 28 28 28 28 28 29 29 29 30 31 32 33 33 33 33 33 33 32 32 32 31 31 31 32 32 32 32 32 32 31 32 31 31 31 32 32 32 33 33 33 33 34 36 35 35 35 36 35 37 38 37 36 35 34 34 33 33 33 32 31 33 32 32
28 29 27 25 26 26 26 26 26 27 28 29 29 30 29 29 29 29 30 31 32 33 33 33 33 32 32 32 32 32 31 31 32 32 32 32 32 32 32 32 31 32 31 30 31 32 32 34 35 35 35 35 35 34 33 31 30 33 34 35 37 37 37 36 36 35 34 33 33 33 32 31 31 32
28 27 26 26 26 26 26 26 27 26 28 28 28 29 29 30 30 32 32 32 32 32 33 32 32 32 32 33 32 32 31 31 31 31 32 32 31 32 32 32 31 31 31 30 31 32 34 35 35 34 34 34 32 30 29 31 31 33 33 32 33 35 36 36 36 37 36 34 34 32 31 31 32 30
27 26 25 25 25 25 25 26 26 26 27 28 28 29 29 30 30 30 31 32 32 32 32 32 33 33 32 33 33 32 32 31 31 31 32 32 31 31 31 31 32 32 32 32 33 34 34 34 33 33 33 32 32 32 30 32 32 33 32 32 32 33 34 36 37 36 36 36 35 34 33 32 31 28
25 26 25 24 24 24 25 25 27 27 28 27 28 29 29 29 29 30 31 32 32 32 32 32 32 32 32 33 33 32 32 32 32 32 31 32 32 32 32 32 32 32 32 32 32 33 34 33 33 33 32 31 32 31 31 32 32 32 32 32 32 32 32 32 34 35 35 35 35 36 36 36 35 35
25 25 23 22 21 21 22 24 25 26 26 27 27 28 29 29 29 30 32 32 32 32 32 32 32 32 33 33 32 31 32 33 33 32 32 32 32 32 32 32 32 32 32 32 32 32 33 33 33 33 32 32 33 32 33 33 32 32 32 32 31 32 32 32 32 32 32 32 33 34 34 34 34 34
MSLP
1020.55 1020.55 1020.51 1020.55 1020.63 1020.75 1020.87 1020.91 1020.95 1020.99 1021.03 1021.03 1020.99 1020.87 1020.79 1020.83 1020.63 1020.83 1020.83 1021.35 1021.47 1021.23 1021.39 1021.31 1021.15 1021.19 1021.23 1021.15 1021.03 1020.95 1020.91 1020.87 1020.71 1020.59 1020.51 1020.43 1020.39 1020.27 1020.11 1019.99 1019.83 1019.75 1019.71 1019.63 1019.55 1019.47 1019.39 1019.43 1019.47 1019.47 1019.39 1019.35 1019.35 1019.39 1019.39 1019.43 1019.47 1019.47 1019.51 1019.51 1019.55 1019.63 1019.71 1019.75 1019.87 1019.83 1019.87 1019.95 1019.79 1019.67 1019.83 1019.99 1020.23 1020.59
1020.55 1020.63 1020.67 1020.63 1020.67 1020.79 1020.71 1020.79 1020.91 1020.91 1020.95 1020.99 1020.99 1021.03 1021.07 1020.95 1021.11 1021.47 1021.39 1021.51 1021.79 1021.59 1021.51 1021.55 1021.59 1021.47 1021.43 1021.39 1021.19 1021.11 1021.03 1020.95 1020.83 1020.75 1020.71 1020.63 1020.55 1020.39 1020.27 1020.19 1020.15 1020.07 1019.91 1019.75 1019.67 1019.63 1019.55 1019.51 1019.51 1019.47 1019.43 1019.39 1019.35 1019.31 1019.27 1019.23 1019.27 1019.31 1019.31 1019.35 1019.43 1019.47 1019.51 1019.59 1019.67 1019.71 1019.71 1019.59 1019.55 1019.67 1019.79 1019.99 1019.95 1020.03
1020.43 1020.47 1020.55 1020.63 1020.71 1020.75 1020.75 1020.83 1020.87 1020.95 1020.91 1020.95 1021.03 1021.23 1021.27 1021.23 1021.19 1021.35 1021.55 1021.55 1021.91 1022.31 1021.71 1021.79 1021.95 1021.99 1021.75 1021.67 1021.55 1021.43 1021.35 1021.23 1021.11 1021.03 1020.95 1020.83 1020.71 1020.55 1020.47 1020.39 1020.35 1020.27 1020.15 1019.99 1019.79 1019.71 1019.63 1019.63 1019.55 1019.51 1019.51 1019.47 1019.43 1019.39 1019.35 1019.27 1019.19 1019.19 1019.27 1019.27 1019.31 1019.31 1019.39 1019.43 1019.47 1019.47 1019.51 1019.59 1019.67 1019.63 1019.67 1019.91 1019.75 1019.87
1020.47 1020.51 1020.55 1020.67 1020.71 1020.79 1020.79 1020.87 1020.95 1020.95 1021.15 1021.23 1021.23 1021.39 1021.47 1021.71 1021.59 1021.39 1021.47 1021.79 1021.83 1022.03 1022.07 1021.99 1021.99 1022.03 1021.87 1021.75 1021.75 1021.75 1021.63 1021.47 1021.31 1021.27 1021.23 1021.15 1020.99 1020.91 1020.87 1020.71 1020.63 1020.55 1020.43 1020.31 1020.19 1020.07 1019.99 1019.99 1019.91 1019.87 1019.75 1019.67 1019.55 1019.47 1019.39 1019.31 1019.27 1019.23 1019.23 1019.23 1019.27 1019.27 1019.35 1019.35 1019.35 1019.35 1019.35 1019.39 1019.43 1019.43 1019.51 1019.59 1019.75 1019.79
1020.67 1020.71 1020.75 1020.83 1020.91 1020.91 1020.83 1020.99 1020.99 1020.99 1021.15 1021.31 1021.55 1021.75 1021.67 1021.75 1021.91 1021.59 1021.67 1021.67 1022.11 1022.15 1022.59 1022.39 1022.23 1022.15 1022.03 1021.87 1022.03 1021.99 1021.91 1021.79 1021.59 1021.47 1021.47 1021.43 1021.35 1021.35 1021.31 1021.15 1020.95 1020.83 1020.71 1020.59 1020.51 1020.43 1020.35 1020.31 1020.23 1020.07 1019.91 1019.71 1019.59 1019.51 1019.43 1019.35 1019.31 1019.23 1019.19 1019.23 1019.27 1019.27 1019.27 1019.23 1019.23 1019.27 1019.31 1019.31 1019.31 1019.27 1019.27 1019.31 1019.35 1019.43
1020.71 1020.75 1020.79 1020.87 1020.95 1020.95 1020.91 1020.95 1021.03 1021.07 1021.11 1021.19 1021.35 1021.67 1021.63 1021.83 1021.95 1022.07 1021.59 1021.95 1021.83 1022.15 1022.51 1022.43 1022.51 1022.47 1022.39 1022.23 1022.31 1022.31 1022.19 1022.11 1021.95 1021.83 1021.79 1021.67 1021.67 1021.67 1021.55 1021.39 1021.23 1021.11 1021.03 1020.95 1020.83 1020.75 1020.71 1020.63 1020.51 1020.31 1020.07 1019.87 1019.71 1019.55 1019.47 1019.39 1019.31 1019.23 1019.15 1019.15 1019.23 1019.27 1019.27 1019.23 1019.15 1019.11 1019.15 1019.27 1019.35 1019.27 1019.11 1019.07 1019.07 1019.07
1020.83 1020.83 1020.83 1020.91 1020.99 1021.03 1020.99 1021.07 1021.11 1021.15 1021.19 1021.39 1021.47 1021.87 1022.03 1021.95 1022.19 1022.19 1022.07 1021.83 1021.99 1022.19 1022.35 1022.71 1022.51 1022.71 1022.63 1022.55 1022.63 1022.55 1022.43 1022.31 1022.15 1022.11 1022.15 1022.07 1021.95 1021.91 1021.83 1021.67 1021.51 1021.31 1021.19 1021.11 1021.07 1020.99 1020.91 1020.83 1020.71 1020.55 1020.39 1020.19 1019.99 1019.83 1019.67 1019.51 1019.39 1019.31 1019.19 1019.15 1019.15 1019.15 1019.19 1019.19 1019.15 1019.11 1019.07 1019.07 1019.07 1019.11 1019.07 1019.03 1019.03 1018.99
1020.71 1020.75 1020.87 1020.91 1020.99 1021.03 1021.07 1021.19 1021.27 1021.39 1021.43 1021.39 1021.59 1021.79 1022.11 1022.15 1022.35 1022.55 1022.47 1022.43 1022.35 1022.75 1022.43 1022.63 1022.79 1022.99 1022.83 1022.75 1022.75 1022.75 1022.59 1022.43 1022.23 1022.31 1022.31 1022.15 1022.15 1022.15 1022.03 1021.91 1021.75 1021.55 1021.39 1021.31 1021.19 1021.11 1021.07 1020.99 1020.87 1020.75 1020.59 1020.43 1020.23 1020.07 1019.91 1019.71 1019.55 1019.43 1019.27 1019.23 1019.19 1019.19 1019.15 1019.11 1019.03 1018.95 1018.91 1018.87 1018.87 1018.83 1018.75 1018.75 1018.75 1018.79
1020.59 1020.67 1020.67 1020.83 1021.03 1021.03 1020.99 1021.19 1021.19 1021.35 1021.39 1021.63 1021.71 1021.91 1022.23 1022.19 1022.43 1022.59 1022.63 1022.75 1022.79 1022.67 1022.71 1022.95 1022.99 1023.19 1023.07 1023.03 1022.91 1022.91 1022.71 1022.43 1022.39 1022.39 1022.35 1022.23 1022.19 1022.19 1022.15 1022.03 1021.79 1021.63 1021.47 1021.43 1021.31 1021.27 1021.15 1021.07 1020.99 1020.87 1020.75 1020.59 1020.43 1020.27 1020.11 1019.91 1019.67 1019.51 1019.35 1019.19 1019.11 1019.03 1018.95 1018.91 1018.83 1018.75 1018.67 1018.63 1018.63 1018.63 1018.59 1018.59 1018.55 1018.47
1020.63 1020.63 1020.63 1020.71 1020.83 1020.87 1020.87 1021.03 1021.15 1021.27 1021.35 1021.51 1021.59 1021.75 1021.95 1022.11 1022.27 1022.35 1022.71 1022.83 1022.87 1022.87 1023.11 1023.11 1023.11 1023.23 1023.23 1023.19 1023.11 1023.07 1023.07 1022.87 1022.55 1022.35 1022.27 1022.23 1022.19 1022.11 1021.95 1021.87 1021.79 1021.59 1021.51 1021.43 1021.31 1021.23 1021.15 1021.11 1020.99 1020.87 1020.75 1020.59 1020.47 1020.31 1020.15 1019.99 1019.75 1019.55 1019.35 1019.19 1019.03 1018.91 1018.79 1018.71 1018.63 1018.55 1018.51 1018.43 1018.39 1018.39 1018.39 1018.35 1018.31 1018.27
1020.55 1020.59 1020.59 1020.63 1020.79 1020.79 1020.83 1020.91 1021.03 1021.19 1021.35 1021.39 1021.51 1021.59 1021.75 1021.95 1021.91 1022.11 1022.39 1022.55 1022.67 1022.87 1022.87 1023.11 1023.39 1023.51 1023.43 1023.47 1023.27 1023.19 1023.19 1023.03 1022.95 1022.99 1022.51 1022.15 1022.19 1022.31 1022.35 1021.95 1021.67 1021.59 1021.47 1021.43 1021.35 1021.27 1021.19 1021.03 1020.91 1020.79 1020.63 1020.51 1020.39 1020.23 1020.11 1019.95 1019.75 1019.59 1019.43 1019.27 1019.07 1018.87 1018.71 1018.55 1018.47 1018.39 1018.31 1018.23 1018.15 1018.07 1018.03 1018.03 1018.03 1018.03
1020.43 1020.43 1020.47 1020.47 1020.55 1020.59 1020.71 1020.75 1020.91 1021.07 1021.27 1021.59 1021.63 1021.91 1021.83 1021.87 1021.91 1022.19 1022.43 1022.59 1022.75 1022.79 1022.91 1023.11 1023.27 1023.59 1023.55 1023.51 1023.55 1023.43 1023.23 1023.07 1022.91 1023.19 1023.35 1023.11 1022.63 1022.43 1022.31 1022.27 1021.91 1021.51 1021.51 1021.39 1021.23 1021.07 1020.91 1020.75 1020.63 1020.51 1020.43 1020.35 1020.19 1020.11 1019.95 1019.83 1019.67 1019.51 1019.35 1019.19 1019.03 1018.87 1018.67 1018.47 1018.31 1018.19 1018.07 1017.99 1017.87 1017.79 1017.75 1017.75 1017.75 1017.71
1020.51 1020.51 1020.47 1020.43 1020.43 1020.51 1020.51 1020.55 1020.63 1020.83 1020.99 1021.27 1021.47 1021.91 1021.99 1021.91 1022.03 1022.31 1022.51 1022.71 1022.75 1022.91 1022.95 1022.95 1023.39 1023.27 1023.27 1023.35 1023.31 1023.15 1023.07 1023.39 1023.67 1023.63 1023.63 1023.43 1023.11 1022.83 1022.43 1022.07 1021.91 1021.71 1021.59 1021.55 1021.43 1021.23 1021.11 1020.87 1020.63 1020.47 1020.27 1020.15 1020.03 1019.91 1019.83 1019.67 1019.51 1019.35 1019.27 1019.11 1018.95 1018.71 1018.55 1018.39 1018.23 1018.03 1017.87 1017.75 1017.63 1017.55 1017.51 1017.47 1017.43 1017.43
1020.39 1020.43 1020.35 1020.31 1020.23 1020.27 1020.39 1020.55 1020.75 1020.95 1021.03 1021.07 1021.11 1021.43 1021.79 1021.91 1021.99 1022.07 1022.23 1022.51 1022.71 1022.83 1022.87 1023.11 1023.27 1023.23 1023.31 1023.47 1023.63 1023.71 1023.55 1023.67 1023.55 1023.43 1023.51 1023.47 1023.23 1023.07 1022.63 1021.99 1021.79 1021.79 1021.83 1021.75 1021.43 1021.23 1021.19 1021.03 1020.67 1020.51 1020.35 1020.07 1020.03 1019.87 1019.71 1019.55 1019.39 1019.19 1019.03 1018.91 1018.79 1018.67 1018.51 1018.31 1018.11 1017.87 1017.67 1017.47 1017.31 1017.23 1017.15 1017.07 1017.03 1016.99
1019.95 1020.11 1020.23 1020.19 1020.19 1020.35 1020.47 1020.63 1020.71 1020.83 1020.95 1021.03 1021.19 1021.39 1021.55 1021.75 1021.91 1022.11 1022.15 1022.27 1022.63 1022.71 1022.91 1023.31 1023.51 1023.59 1023.55 1023.59 1023.95 1023.95 1023.83 1023.79 1023.83 1023.79 1023.71 1023.67 1023.35 1023.27 1023.27 1022.51 1021.71 1021.95 1021.91 1021.87 1021.91 1021.23 1021.07 1020.99 1020.75 1020.47 1020.35 1020.15 1019.99 1019.87 1019.67 1019.39 1019.19 1019.03 1018.91 1018.83 1018.71 1018.59 1018.35 1018.15 1017.91 1017.63 1017.43 1017.23 1017.03 1016.87 1016.75 1016.67 1016.59 1016.51
1019.83 1019.91 1020.03 1020.19 1020.23 1020.31 1020.39 1020.59 1020.79 1020.91 1021.03 1021.11 1021.27 1021.43 1021.59 1021.75 1021.91 1022.03 1022.11 1022.27 1022.59 1022.75 1022.75 1023.07 1023.23 1023.51 1023.55 1023.59 1023.83 1023.91 1023.99 1023.99 1024.03 1023.99 1023.95 1023.83 1023.71 1023.55 1023.43 1023.31 1022.91 1021.87 1022.11 1022.23 1021.91 1021.19 1020.95 1020.83 1020.75 1020.51 1020.31 1020.15 1020.03 1019.83 1019.59 1019.31 1019.07 1018.95 1018.87 1018.79 1018.63 1018.43 1018.23 1018.03 1017.75 1017.51 1017.27 1017.03 1016.83 1016.63 1016.47 1016.35 1016.23 1016.15
1019.55 1019.71 1019.87 1020.07 1020.19 1020.23 1020.39 1020.55 1020.75 1020.95 1021.23 1021.55 1021.55 1021.63 1021.83 1022.03 1022.15 1022.27 1022.43 1022.39 1022.15 1022.39 1022.67 1022.87 1023.07 1023.39 1023.59 1023.67 1023.79 1024.07 1024.15 1024.23 1024.03 1023.95 1023.91 1023.91 1023.91 1023.83 1023.79 1023.39 1022.91 1022.19 1022.39 1022.47 1022.07 1021.15 1020.71 1020.87 1020.67 1020.51 1020.23 1020.11 1019.99 1019.75 1019.51 1019.27 1019.03 1018.87 1018.83 1018.71 1018.55 1018.35 1018.11 1017.87 1017.63 1017.35 1017.11 1016.87 1016.67 1016.47 1016.31 1016.15 1015.99 1015.87
1019.39 1019.51 1019.67 1019.87 1020.11 1020.31 1020.47 1020.63 1020.83 1021.03 1021.27 1021.55 1021.59 1021.83 1022.11 1022.27 1022.55 1022.67 1022.67 1022.67 1022.63 1022.51 1022.47 1022.67 1022.83 1023.51 1023.83 1023.79 1023.91 1024.03 1024.11 1024.07 1023.99 1023.95 1023.87 1023.83 1023.79 1023.71 1023.55 1023.23 1023.07 1022.55 1022.51 1022.51 1022.19 1021.51 1020.75 1020.67 1020.63 1020.51 1020.15 1019.99 1019.79 1019.67 1019.47 1019.23 1018.95 1018.79 1018.75 1018.63 1018.43 1018.19 1017.99 1017.83 1017.59 1017.31 1016.99 1016.71 1016.47 1016.31 1016.15 1015.99 1015.83 1015.71
1019.27 1019.43 1019.59 1019.75 1019.95 1020.15 1020.35 1020.51 1020.63 1020.71 1021.03 1021.19 1021.35 1021.67 1022.03 1022.39 1022.67 1022.75 1022.79 1022.91 1022.95 1022.83 1022.91 1023.03 1023.23 1023.47 1023.71 1023.75 1023.83 1023.87 1023.91 1023.91 1023.83 1023.79 1023.75 1023.71 1023.67 1023.55 1023.35 1023.19 1022.91 1022.63 1022.43 1022.23 1022.27 1021.75 1020.99 1020.75 1020.47 1020.19 1020.07 1019.83 1019.71 1019.51 1019.27 1019.07 1018.79 1018.75 1018.67 1018.51 1018.27 1018.03 1017.87 1017.75 1017.51 1017.31 1017.03 1016.75 1016.43 1016.15 1015.95 1015.79 1015.67 1015.59
1019.35 1019.43 1019.55 1019.67 1019.87 1020.03 1020.11 1020.23 1020.43 1020.63 1020.87 1020.99 1021.31 1021.75 1022.11 1022.39 1022.71 1022.91 1023.11 1023.07 1023.07 1022.99 1023.03 1023.11 1023.27 1023.39 1023.51 1023.55 1023.67 1023.67 1023.67 1023.71 1023.71 1023.71 1023.71 1023.67 1023.59 1023.55 1023.51 1023.23 1022.79 1022.75 1022.31 1022.19 1022.07 1021.75 1021.31 1021.03 1020.75 1020.15 1019.91 1019.79 1019.59 1019.27 1019.15 1018.83 1018.63 1018.59 1018.47 1018.35 1018.11 1017.95 1017.79 1017.63 1017.43 1017.23 1017.03 1016.75 1016.43 1016.11 1015.87 1015.71 1015.59 1015.51
1019.55 1019.55 1019.59 1019.71 1019.91 1020.11 1020.31 1020.59 1020.67 1020.67 1020.79 1021.19 1021.47 1021.75 1022.07 1022.39 1022.55 1022.95 1023.23 1023.39 1023.43 1023.27 1023.19 1023.23 1023.31 1023.39 1023.43 1023.47 1023.51 1023.51 1023.47 1023.47 1023.47 1023.59 1023.63 1023.43 1023.35 1023.51 1023.35 1023.03 1022.79 1022.59 1022.35 1022.03 1021.79 1021.79 1021.59 1021.03 1020.79 1020.35 1019.91 1019.63 1019.39 1019.11 1018.83 1018.55 1018.51 1018.39 1018.31 1018.11 1017.99 1017.83 1017.63 1017.47 1017.35 1017.19 1016.99 1016.75 1016.47 1016.19 1015.95 1015.79 1015.63 1015.47
1019.95 1019.95 1019.83 1019.91 1020.11 1020.31 1020.71 1020.83 1020.83 1021.03 1021.07 1021.23 1021.63 1021.87 1022.07 1022.15 1022.23 1022.51 1023.03 1023.23 1023.35 1023.43 1023.35 1023.39 1023.43 1023.43 1023.43 1023.39 1023.35 1023.27 1023.23 1023.19 1023.27 1023.43 1023.51 1023.27 1023.39 1023.47 1023.43 1023.15 1022.71 1022.51 1022.39 1021.91 1021.59 1021.63 1021.31 1020.91 1020.67 1020.31 1019.71 1019.43 1019.15 1018.91 1018.59 1018.39 1018.35 1018.27 1018.11 1017.99 1017.87 1017.71 1017.51 1017.31 1017.19 1017.11 1016.99 1016.79 1016.55 1016.31 1016.07 1015.83 1015.67 1015.43
1020.55 1020.55 1020.59 1020.51 1020.55 1020.79 1021.07 1021.11 1021.19 1021.31 1021.35 1021.63 1021.83 1022.03 1022.03 1022.07 1022.15 1022.51 1022.95 1022.95 1022.95 1023.07 1023.07 1023.11 1023.23 1023.11 1023.15 1023.23 1023.27 1023.19 1023.07 1023.03 1022.99 1023.07 1023.15 1023.15 1023.31 1023.31 1023.19 1023.11 1022.83 1022.55 1021.99 1021.59 1021.43 1021.59 1021.03 1020.95 1020.51 1020.31 1019.75 1019.39 1018.79 1018.59 1018.43 1018.35 1018.23 1018.15 1018.07 1017.95 1017.79 1017.59 1017.35 1017.15 1017.03 1016.91 1016.83 1016.75 1016.55 1016.31 1016.11 1015.91 1015.75 1015.55
1021.03 1021.15 1021.15 1021.07 1020.87 1020.95 1021.11 1021.27 1021.43 1021.59 1021.67 1021.83 1022.15 1022.19 1022.11 1022.19 1022.27 1022.87 1023.03 1023.19 1023.27 1023.23 1023.27 1023.31 1023.39 1023.35 1023.35 1023.31 1023.27 1023.19 1023.11 1022.99 1022.87 1022.83 1022.83 1022.91 1022.99 1023.07 1022.99 1022.91 1022.91 1022.75 1022.03 1021.51 1021.43 1021.51 1020.95 1020.79 1020.47 1020.27 1020.27 1020.15 1019.23 1018.51 1018.43 1018.27 1018.15 1017.99 1017.95 1017.87 1017.75 1017.47 1017.27 1017.07 1016.87 1016.75 1016.67 1016.59 1016.47 1016.31 1016.19 1016.03 1015.87 1015.71
1020.99 1021.35 1021.47 1021.51 1021.43 1021.35 1021.47 1021.59 1021.75 1021.87 1021.99 1022.15 1022.27 1022.35 1022.35 1022.59 1022.83 1023.03 1022.99 1023.11 1023.27 1023.31 1023.31 1023.39 1023.39 1023.39 1023.39 1023.35 1023.31 1023.23 1023.11 1022.95 1022.75 1022.63 1022.51 1022.51 1022.59 1022.67 1022.67 1022.59 1022.43 1022.15 1021.67 1021.47 1021.27 1021.31 1020.91 1020.59 1020.51 1020.23 1019.99 1019.79 1019.19 1018.79 1018.19 1018.11 1017.91 1017.79 1017.67 1017.67 1017.59 1017.39 1017.23 1017.03 1016.91 1016.71 1016.51 1016.35 1016.27 1016.19 1016.07 1015.99 1015.91 1015.83
1021.39 1021.55 1021.63 1021.71 1021.75 1021.75 1021.87 1021.99 1022.11 1022.23 1022.43 1022.59 1022.59 1022.63 1022.75 1022.99 1023.11 1023.11 1023.15 1023.31 1023.43 1023.51 1023.55 1023.55 1023.55 1023.47 1023.39 1023.27 1023.11 1022.99 1022.87 1022.71 1022.59 1022.47 1022.39 1022.27 1022.19 1022.19 1022.19 1022.15 1022.03 1021.75 1021.31 1021.11 1021.07 1021.07 1020.91 1020.51 1020.39 1020.19 1019.87 1019.71 1018.91 1018.87 1018.39 1018.03 1017.79 1017.55 1017.39 1017.35 1017.35 1017.19 1017.07 1016.91 1016.79 1016.59 1016.43 1016.27 1016.11 1016.03 1015.99 1015.91 1015.87 1015.79
1021.67 1021.79 1021.79 1021.87 1021.99 1022.07 1022.19 1022.27 1022.39 1022.47 1022.59 1022.67 1022.75 1022.83 1022.95 1023.11 1023.23 1023.27 1023.31 1023.39 1023.43 1023.39 1023.43 1023.47 1023.31 1023.23 1023.19 1023.07 1022.91 1022.83 1022.67 1022.51 1022.39 1022.27 1022.15 1021.99 1021.91 1021.75 1021.63 1021.51 1021.43 1021.27 1020.91 1020.91 1020.87 1020.79 1020.71 1020.31 1020.07 1020.07 1019.71 1019.51 1019.19 1018.55 1018.47 1018.11 1017.67 1017.39 1017.27 1017.15 1017.03 1016.91 1016.83 1016.75 1016.63 1016.47 1016.31 1016.19 1016.07 1015.99 1015.87 1015.71 1015.67 1015.63
1021.75 1021.83 1021.95 1022.07 1022.19 1022.27 1022.31 1022.43 1022.59 1022.71 1022.83 1022.87 1022.91 1022.99 1023.03 1023.11 1023.19 1023.23 1023.15 1023.07 1023.11 1023.15 1023.07 1022.95 1022.91 1022.87 1022.87 1022.95 1022.87 1022.67 1022.43 1022.23 1022.11 1021.99 1021.87 1021.71 1021.55 1021.43 1021.27 1021.11 1020.95 1020.75 1020.63 1020.59 1020.51 1020.43 1020.31 1020.11 1019.83 1019.71 1019.55 1019.35 1019.15 1018.83 1018.35 1017.75 1017.59 1017.35 1017.23 1016.95 1016.87 1016.75 1016.63 1016.51 1016.39 1016.35 1016.19 1016.19 1016.11 1015.95 1015.83 1015.59 1015.47 1015.43
1021.71 1021.83 1021.99 1022.11 1022.19 1022.35 1022.47 1022.59 1022.71 1022.75 1022.83 1022.87 1022.95 1022.95 1022.99 1023.11 1023.23 1023.23 1023.15 1023.15 1023.23 1023.11 1023.07 1023.07 1023.11 1023.11 1022.91 1022.75 1022.55 1022.35 1022.23 1022.07 1021.99 1021.83 1021.59 1021.47 1021.31 1021.19 1020.99 1020.79 1020.67 1020.51 1020.43 1020.23 1020.15 1020.03 1019.91 1019.75 1019.55 1019.39 1019.27 1018.95 1018.83 1018.27 1018.23 1017.63 1017.55 1017.23 1017.11 1016.87 1016.75 1016.51 1016.31 1016.27 1016.23 1016.03 1015.95 1016.03 1015.95 1015.87 1015.75 1015.63 1015.55 1015.47
1021.79 1021.95 1022.15 1022.27 1022.39 1022.51 1022.67 1022.75 1022.83 1022.91 1023.03 1023.03 1023.03 1023.15 1023.23 1023.31 1023.27 1023.31 1023.27 1023.27 1023.27 1023.27 1023.23 1023.19 1023.11 1022.95 1022.79 1022.63 1022.47 1022.35 1022.27 1022.15 1021.91 1021.67 1021.47 1021.31 1021.11 1020.99 1020.75 1020.55 1020.31 1020.23 1020.11 1019.95 1019.75 1019.63 1019.55 1019.43 1019.27 1019.15 1018.95 1018.67 1018.47 1018.15 1017.87 1017.71 1017.23 1016.99 1016.83 1016.79 1016.51 1016.27 1016.15 1015.99 1015.91 1015.95 1015.91 1015.71 1015.67 1015.67 1015.55 1015.59 1015.47 1015.43
1022.15 1022.35 1022.47 1022.59 1022.71 1022.79 1022.95 1023.03 1023.15 1023.15 1023.19 1023.15 1023.27 1023.31 1023.35 1023.35 1023.35 1023.35 1023.35 1023.39 1023.39 1023.31 1023.23 1023.15 1023.03 1022.87 1022.75 1022.63 1022.55 1022.35 1022.15 1021.95 1021.71 1021.55 1021.35 1021.23 1020.95 1020.83 1020.59 1020.47 1020.07 1019.91 1019.67 1019.51 1019.35 1019.27 1019.19 1019.07 1018.95 1018.83 1018.71 1018.35 1018.15 1017.91 1017.63 1017.43 1017.03 1016.83 1016.63 1016.51 1016.43 1016.59 1015.79 1015.79 1015.75 1015.63 1015.59 1015.55 1015.59 1015.59 1015.51 1015.43 1015.35 1015.23
1022.35 1022.51 1022.71 1022.79 1022.91 1022.95 1023.03 1023.19 1023.27 1023.39 1023.43 1023.47 1023.47 1023.43 1023.47 1023.47 1023.47 1023.43 1023.43 1023.39 1023.39 1023.31 1023.23 1023.15 1023.03 1022.87 1022.71 1022.59 1022.39 1022.19 1022.07 1021.83 1021.59 1021.39 1021.23 1021.03 1020.71 1020.55 1020.35 1020.19 1019.79 1019.55 1019.31 1019.19 1018.99 1018.87 1018.79 1018.63 1018.55 1018.39 1018.27 1018.07 1017.91 1017.55 1017.39 1017.15 1016.95 1016.67 1016.47 1016.19 1015.99 1015.79 1015.71 1015.63 1015.47 1015.35 1015.23 1015.31 1015.35 1015.19 1015.11 1015.15 1015.07 1015.03
1022.51 1022.55 1022.67 1022.83 1022.95 1023.03 1023.11 1023.27 1023.39 1023.51 1023.55 1023.55 1023.63 1023.59 1023.55 1023.55 1023.55 1023.51 1023.43 1023.35 1023.23 1023.15 1023.11 1023.03 1022.91 1022.71 1022.55 1022.35 1022.15 1021.95 1021.79 1021.51 1021.27 1021.07 1020.95 1020.71 1020.55 1020.19 1020.15 1019.91 1019.59 1019.39 1019.11 1018.79 1018.55 1018.27 1018.27 1018.19 1018.07 1017.95 1017.75 1017.55 1017.39 1017.23 1017.15 1016.91 1016.47 1016.27 1016.11 1015.91 1015.91 1015.75 1015.59 1015.39 1015.35 1015.19 1015.11 1015.19 1015.11 1014.99 1014.87 1014.87 1014.91 1014.83
1022.39 1022.71 1022.83 1023.03 1023.07 1023.23 1023.31 1023.39 1023.51 1023.55 1023.67 1023.67 1023.63 1023.59 1023.63 1023.59 1023.47 1023.35 1023.31 1023.27 1023.19 1023.11 1023.07 1022.99 1022.83 1022.63 1022.39 1022.15 1021.91 1021.67 1021.39 1021.03 1020.87 1020.67 1020.59 1020.35 1020.19 1020.07 1019.83 1019.59 1019.27 1018.99 1018.79 1018.51 1018.23 1017.91 1017.75 1017.67 1017.59 1017.43 1017.23 1017.03 1016.79 1016.67 1016.59 1016.51 1016.19 1015.95 1015.75 1015.75 1015.71 1015.51 1015.11 1015.07 1014.99 1014.87 1014.91 1014.87 1014.79 1014.87 1014.83 1014.71 1014.67 1014.67
1022.47 1022.63 1022.79 1023.15 1023.31 1023.39 1023.47 1023.47 1023.55 1023.67 1023.67 1023.67 1023.67 1023.59 1023.59 1023.51 1023.47 1023.39 1023.39 1023.27 1023.15 1023.07 1022.95 1022.75 1022.55 1022.31 1022.15 1021.91 1021.63 1021.43 1021.11 1020.87 1020.55 1020.27 1020.07 1019.95 1019.79 1019.67 1019.43 1019.27 1018.87 1018.63 1018.43 1018.15 1017.91 1017.63 1017.51 1017.35 1017.31 1017.19 1016.99 1016.75 1016.51 1015.95 1015.79 1015.79 1015.87 1015.59 1015.47 1015.27 1015.19 1015.07 1014.79 1014.71 1014.71 1014.63 1014.63 1014.63 1014.71 1014.71 1014.59 1014.55 1014.51 1014.51
1022.67 1022.71 1022.91 1023.15 1023.31 1023.43 1023.43 1023.55 1023.67 1023.71 1023.71 1023.67 1023.59 1023.59 1023.51 1023.47 1023.43 1023.39 1023.27 1023.07 1022.95 1022.79 1022.63 1022.43 1022.23 1022.03 1021.79 1021.55 1021.31 1021.07 1020.79 1020.51 1020.23 1019.99 1019.75 1019.59 1019.39 1019.15 1018.95 1018.71 1018.43 1018.19 1017.95 1017.75 1017.55 1017.31 1017.27 1017.15 1017.11 1017.11 1016.91 1016.55 1016.35 1015.87 1015.35 1014.99 1015.03 1015.03 1015.11 1014.95 1014.83 1014.75 1014.59 1014.51 1014.43 1014.39 1014.43 1014.47 1014.51 1014.47 1014.39 1014.31 1014.11 1014.35
1022.75 1022.91 1022.99 1023.11 1023.31 1023.43 1023.47 1023.63 1023.67 1023.67 1023.67 1023.67 1023.59 1023.59 1023.55 1023.43 1023.23 1023.11 1022.95 1022.79 1022.67 1022.51 1022.31 1022.11 1021.87 1021.63 1021.39 1021.11 1020.87 1020.63 1020.39 1020.19 1019.91 1019.59 1019.39 1019.11 1018.91 1018.71 1018.51 1018.15 1017.95 1017.71 1017.55 1017.27 1017.15 1016.99 1016.95 1016.91 1016.79 1016.83 1016.63 1016.35 1016.15 1015.79 1015.19 1014.83 1014.59 1014.51 1014.63 1014.75 1014.59 1014.43 1014.39 1014.35 1014.35 1014.27 1014.15 1014.11 1014.15 1014.19 1014.07 1014.03 1014.03 1014.39
1022.67 1022.91 1023.07 1023.23 1023.35 1023.47 1023.59 1023.63 1023.63 1023.67 1023.63 1023.59 1023.55 1023.47 1023.39 1023.27 1023.11 1022.91 1022.63 1022.51 1022.31 1022.15 1021.91 1021.75 1021.47 1021.23 1020.99 1020.75 1020.55 1020.23 1019.99 1019.75 1019.51 1019.27 1018.95 1018.75 1018.55 1018.31 1018.07 1017.83 1017.51 1017.35 1017.11 1016.83 1016.75 1016.63 1016.55 1016.51 1016.47 1016.35 1016.27 1016.07 1015.83 1015.55 1015.23 1014.51 1014.47 1014.23 1014.23 1014.35 1014.43 1014.19 1014.19 1014.27 1014.23 1014.11 1013.95 1013.99 1013.99 1014.03 1014.07 1014.03 1014.27 1014.51
1022.71 1022.91 1023.07 1023.23 1023.35 1023.43 1023.47 1023.59 1023.67 1023.63 1023.59 1023.51 1023.39 1023.27 1023.19 1023.07 1022.95 1022.71 1022.51 1022.35 1022.11 1021.87 1021.59 1021.35 1021.11 1020.87 1020.63 1020.39 1020.19 1019.95 1019.71 1019.43 1019.15 1018.83 1018.59 1018.31 1018.15 1017.91 1017.67 1017.47 1017.23 1016.91 1016.79 1016.51 1016.31 1016.19 1016.15 1016.11 1015.95 1015.87 1015.79 1015.71 1015.55 1015.19 1014.91 1014.79 1014.43 1014.15 1014.15 1014.19 1014.19 1014.19 1014.03 1014.07 1014.03 1013.91 1013.91 1014.07 1014.35 1014.43 1014.51 1014.51 1014.59 1014.67
1022.91 1022.99 1023.11 1023.19 1023.31 1023.47 1023.59 1023.59 1023.59 1023.55 1023.51 1023.39 1023.35 1023.27 1023.19 1023.03 1022.79 1022.59 1022.35 1022.11 1021.83 1021.51 1021.27 1021.03 1020.75 1020.55 1020.31 1020.07 1019.83 1019.55 1019.31 1019.07 1018.79 1018.51 1018.23 1017.95 1017.71 1017.55 1017.35 1017.11 1016.91 1016.63 1016.47 1016.19 1015.95 1015.71 1015.63 1015.47 1015.39 1015.31 1015.27 1015.11 1014.91 1014.75 1014.63 1014.59 1014.43 1014.15 1014.07 1013.91 1013.91 1013.91 1013.79 1013.83 1013.87 1013.83 1013.87 1013.99 1014.27 1014.35 1014.59 1014.59 1014.67 1014.87
1022.91 1022.99 1023.15 1023.27 1023.43 1023.55 1023.51 1023.51 1023.51 1023.47 1023.39 1023.35 1023.31 1023.19 1022.99 1022.83 1022.63 1022.43 1022.15 1021.83 1021.59 1021.31 1021.03 1020.79 1020.59 1020.35 1020.07 1019.75 1019.47 1019.27 1019.03 1018.63 1018.35 1018.11 1017.83 1017.63 1017.39 1017.15 1016.91 1016.75 1016.55 1016.31 1016.19 1015.83 1015.55 1015.27 1014.99 1014.75 1014.67 1014.63 1014.71 1014.71 1014.63 1014.67 1014.75 1014.63 1014.35 1013.83 1013.75 1013.55 1013.51 1013.55 1013.55 1013.59 1013.55 1013.63 1013.67 1013.99 1014.19 1014.31 1014.51 1014.63 1014.79 1014.91
1022.87 1023.07 1023.23 1023.47 1023.47 1023.51 1023.51 1023.43 1023.43 1023.43 1023.35 1023.31 1023.19 1023.03 1022.83 1022.63 1022.39 1022.07 1021.79 1021.55 1021.35 1021.15 1020.91 1020.63 1020.35 1020.03 1019.71 1019.43 1019.15 1018.91 1018.71 1018.39 1018.07 1017.79 1017.51 1017.27 1017.03 1016.75 1016.51 1016.39 1016.19 1015.87 1015.83 1015.51 1015.11 1014.71 1014.31 1014.35 1014.39 1014.43 1014.43 1014.55 1014.59 1014.63 1014.39 1014.23 1013.99 1013.67 1013.55 1013.51 1013.51 1013.51 1013.43 1013.27 1013.23 1013.23 1013.39 1013.67 1013.95 1014.23 1014.59 1014.83 1014.79 1015.03
1023.03 1023.15 1023.31 1023.47 1023.55 1023.51 1023.47 1023.47 1023.43 1023.35 1023.27 1023.23 1023.11 1022.91 1022.71 1022.43 1022.19 1021.95 1021.71 1021.43 1021.19 1020.99 1020.71 1020.43 1020.11 1019.79 1019.47 1019.15 1018.87 1018.63 1018.39 1018.03 1017.75 1017.43 1017.15 1016.87 1016.67 1016.43 1016.19 1015.91 1015.67 1015.47 1015.27 1014.99 1014.63 1014.39 1014.19 1014.15 1014.19 1014.23 1014.23 1014.27 1014.23 1014.19 1014.07 1013.83 1013.71 1013.63 1013.59 1013.55 1013.59 1013.67 1013.59 1013.35 1013.19 1013.27 1013.47 1013.63 1013.67 1013.71 1013.83 1014.07 1014.31 1014.59
1023.19 1023.31 1023.39 1023.51 1023.47 1023.43 1023.47 1023.47 1023.31 1023.27 1023.27 1023.19 1023.03 1022.83 1022.63 1022.43 1022.15 1021.83 1021.63 1021.43 1021.15 1020.83 1020.51 1020.23 1019.87 1019.55 1019.23 1018.87 1018.59 1018.31 1018.03 1017.71 1017.39 1017.07 1016.75 1016.47 1016.19 1015.99 1015.75 1015.47 1015.23 1015.03 1014.87 1014.67 1014.43 1014.15 1013.95 1013.91 1013.87 1013.91 1013.99 1013.91 1013.87 1013.91 1013.79 1013.75 1013.63 1013.55 1013.55 1013.63 1013.79 1013.87 1013.91 1013.87 1013.75 1013.71 1013.79 1013.91 1013.95 1013.95 1013.99 1014.03 1014.07 1014.03
1023.31 1023.35 1023.43 1023.47 1023.51 1023.55 1023.43 1023.31 1023.31 1023.31 1023.27 1023.15 1022.95 1022.79 1022.59 1022.39 1022.15 1021.83 1021.55 1021.31 1021.03 1020.71 1020.43 1020.07 1019.75 1019.39 1019.03 1018.67 1018.39 1018.07 1017.67 1017.31 1017.03 1016.71 1016.39 1016.07 1015.79 1015.51 1015.31 1015.07 1014.87 1014.67 1014.47 1014.23 1014.19 1013.91 1013.67 1013.63 1013.55 1013.63 1013.67 1013.59 1013.55 1013.59 1013.51 1013.51 1013.47 1013.43 1013.55 1013.71 1013.87 1013.99 1013.99 1013.95 1013.95 1014.07 1014.23 1014.39 1014.43 1014.35 1014.27 1014.31 1014.35 1014.35
Wind_Speed
4 4 4 5 4 2 2 3 4 3 3 3 2 3 5 3 5 1 2 2 2 4 4 5 4 6 7 7 6 7 7 8 9 6 6 6 5 9 11 12 12 12 12 11 10 10 10 9 8 8 9 9 8 7 8 7 7 8 8 9 10 11 13 15 15 17 16 18 19 18 17 17 16 17
4 4 3 3 4 2 4 3 2 3 4 5 4 4 3 4 6 2 3 1 1 2 3 4 4 6 7 6 7 6 7 11 10 7 7 7 7 12 12 14 13 13 13 12 11 10 11 11 10 9 9 9 9 10 10 10 9 8 8 8 8 9 11 12 14 17 18 19 18 16 15 15 17 18
5 5 4 3 4 3 4 4 4 3 4 4 5 5 5 5 5 5 2 2 2 1 3 3 3 3 5 4 5 7 7 10 11 8 8 7 12 13 11 16 16 16 15 13 11 9 9 8 10 9 9 9 9 9 9 10 11 10 9 8 7 8 9 10 11 15 17 17 15 19 18 14 17 17
3 4 4 4 4 3 4 5 5 4 5 4 6 6 7 5 3 4 3 3 1 1 1 3 4 4 6 4 7 7 6 8 11 6 7 8 10 9 8 12 16 18 17 15 14 12 11 11 11 11 11 10 9 9 9 9 9 9 9 9 8 8 8 9 9 11 13 14 16 17 17 17 16 17
3 4 4 3 2 2 5 4 4 5 4 5 6 5 6 6 4 4 3 3 1 1 1 2 4 4 5 5 6 7 7 8 8 7 6 7 7 8 7 7 12 17 17 17 16 16 16 16 15 15 14 12 11 10 8 8 8 8 8 8 8 8 9 10 9 9 10 11 12 14 16 17 17 16
2 3 4 1 2 2 5 4 4 4 5 6 7 6 6 6 6 3 5 3 3 1 1 4 3 4 3 4 5 6 7 7 5 7 7 6 6 7 7 7 7 15 15 16 17 16 16 16 16 17 16 16 15 13 11 10 9 9 8 8 7 8 9 10 10 10 10 11 10 11 13 14 15 16
2 3 3 3 2 2 4 4 3 4 5 5 6 5 4 6 4 4 4 4 4 4 3 1 4 5 5 5 6 6 5 4 4 5 6 5 5 6 6 6 6 12 12 13 13 14 15 15 15 16 16 15 15 15 15 14 12 10 9 8 7 7 7 7 8 9 9 9 10 9 10 11 12 14
4 4 4 4 3 2 4 3 4 3 4 5 5 5 4 5 4 3 4 4 2 1 3 3 4 5 5 3 3 5 4 6 6 5 4 4 4 5 6 5 6 8 10 10 11 12 12 13 13 13 13 13 13 14 15 15 15 11 9 7 6 5 5 6 7 7 8 9 10 11 10 10 11 14
5 4 5 4 3 3 4 3 4 4 4 3 5 5 3 4 4 4 4 4 3 3 4 3 1 3 2 2 3 6 8 7 4 4 6 5 5 5 3 4 5 8 7 6 8 9 10 11 11 12 11 10 10 12 13 13 13 12 9 9 9 9 8 6 6 7 8 8 8 10 12 11 13 15
5 5 5 5 5 4 4 4 3 3 4 4 4 4 3 3 3 4 3 4 4 5 3 2 4 3 5 4 2 5 6 6 7 8 6 3 4 7 9 7 6 5 4 4 5 6 7 9 10 11 11 10 10 11 11 11 12 12 10 12 13 13 12 10 8 8 8 8 9 9 10 12 13 15
5 5 5 5 5 5 5 5 5 4 3 3 4 4 4 3 4 5 4 4 5 4 4 2 2 2 1 3 5 4 4 4 3 7 10 10 5 5 7 9 6 4 4 2 5 6 7 9 9 10 11 10 11 11 11 11 11 11 11 12 13 14 14 13 11 10 9 9 9 9 9 10 13 14
6 6 6 6 7 7 6 6 6 6 6 4 3 1 3 4 5 4 4 4 4 4 4 3 3 2 2 3 1 2 2 5 4 6 5 9 10 10 7 5 9 5 3 6 6 6 8 8 9 10 9 10 12 11 10 10 11 11 12 13 13 13 13 13 13 12 11 11 10 10 11 11 11 13
4 5 6 6 6 7 8 10 9 8 8 6 6 3 3 4 5 4 4 4 4 3 4 5 3 5 6 5 7 8 7 7 5 5 3 4 7 8 8 7 4 2 4 4 6 7 6 8 8 8 8 7 9 9 11 9 11 12 13 13 13 14 13 13 13 13 13 12 12 11 12 12 12 12
5 6 7 7 10 11 11 10 10 10 10 9 7 7 5 4 4 5 5 4 4 3 2 1 2 5 6 5 4 3 3 4 5 6 5 7 6 5 8 6 1 1 4 8 10 8 5 6 8 6 7 6 6 6 7 7 11 14 15 14 14 14 14 14 13 13 13 13 12 12 12 12 13 13
8 7 7 6 7 8 8 9 12 12 11 11 10 10 9 7 6 5 5 5 5 3 2 1 0 1 4 4 2 2 4 3 3 5 6 6 7 7 8 12 7 2 7 8 8 10 5 4 7 7 6 6 6 6 7 13 15 15 15 15 15 14 14 14 14 14 13 13 13 13 13 12 13 13
6 7 6 5 4 6 7 7 8 9 10 10 10 10 9 8 6 5 4 4 4 4 3 2 2 2 3 3 2 2 2 4 4 3 3 3 5 7 8 6 8 5 8 9 10 11 4 2 4 6 5 5 5 7 10 14 15 14 14 13 12 13 14 14 14 13 13 13 12 12 12 12 12 12
6 6 5 5 5 4 8 8 7 7 6 4 7 7 6 4 4 4 4 2 3 6 4 3 3 3 2 1 1 1 2 1 3 4 5 3 3 4 6 7 8 10 6 7 9 12 6 4 4 6 6 5 4 7 9 13 15 13 12 10 10 12 13 14 14 14 13 12 11 10 10 11 11 11
6 6 6 6 5 4 5 5 6 6 6 5 5 4 3 2 3 4 3 2 4 3 4 4 2 1 2 1 1 1 1 1 3 4 6 4 6 6 7 7 9 9 6 6 6 10 9 4 5 6 6 5 5 5 8 12 14 12 9 9 11 12 12 12 13 14 14 13 10 9 8 8 9 9
5 5 5 5 5 6 6 5 7 7 7 6 5 4 3 3 3 3 3 2 2 3 3 3 2 2 2 3 3 3 2 3 3 4 5 5 6 7 6 6 6 6 4 5 2 8 7 6 8 6 6 6 6 5 7 11 13 10 8 9 11 13 11 10 11 13 13 12 11 9 8 7 7 7
3 4 5 6 6 6 7 8 10 7 6 5 5 4 3 4 4 4 3 3 4 4 4 3 3 2 2 3 3 3 3 3 3 3 3 3 4 4 5 6 5 4 4 3 4 7 6 4 7 9 6 6 7 6 5 9 11 7 8 9 11 12 10 9 9 10 12 12 11 10 9 8 7 7
1 2 4 4 5 4 3 5 9 9 8 5 5 5 4 3 4 4 1 3 4 4 5 3 2 2 4 4 5 5 6 3 2 1 3 5 3 5 7 6 3 4 3 3 5 4 6 4 5 8 6 6 7 7 7 6 5 7 7 9 11 12 11 8 7 8 10 11 11 11 11 9 8 7
4 4 7 6 6 6 4 6 9 9 7 6 5 5 4 2 1 0 0 0 0 1 2 3 2 4 3 3 5 6 6 7 3 1 5 5 3 6 4 7 5 6 3 5 1 3 5 5 4 6 6 5 4 5 7 5 4 5 6 8 10 11 12 10 8 6 7 9 9 10 11 11 9 5
5 5 7 9 9 8 8 11 11 10 8 6 4 4 3 2 0 2 0 0 2 3 4 3 4 4 5 4 4 4 9 9 7 3 4 4 4 6 6 7 7 7 2 3 2 7 6 5 5 4 7 7 4 4 4 3 4 5 4 5 7 10 11 12 10 7 7 7 7 8 9 10 8 5
5 5 6 7 12 13 13 12 11 9 9 6 3 3 2 1 1 0 1 0 0 1 1 3 2 3 4 5 4 5 4 6 4 5 4 4 5 6 6 6 5 7 3 1 3 6 5 3 5 2 6 9 7 2 3 5 5 5 4 6 5 8 9 9 8 8 7 6 6 5 5 6 6 5
6 5 5 5 8 11 11 10 9 8 7 5 3 3 2 2 1 3 1 1 1 1 2 2 3 5 5 5 5 5 5 6 6 5 5 5 5 5 6 7 7 8 6 6 8 4 6 5 8 6 6 6 8 9 5 4 5 6 4 5 6 7 6 6 5 6 6 8 6 5 5 6 6 4
5 5 5 5 6 9 9 8 7 7 7 5 2 1 3 3 5 2 1 1 1 1 2 3 3 5 5 5 5 5 5 6 6 5 6 6 6 6 6 7 8 9 7 4 7 6 8 8 6 8 7 8 9 6 9 6 4 6 6 6 4 6 5 5 5 6 6 5 5 4 6 7 5 4
5 4 4 3 5 6 6 6 6 5 4 3 1 2 1 2 3 2 1 1 1 1 2 2 4 4 5 5 6 5 6 6 6 6 6 6 6 7 7 7 8 9 9 6 6 7 7 8 6 8 9 8 11 9 8 8 5 2 5 5 6 6 6 5 6 6 6 5 5 6 6 6 5 4
6 5 3 3 5 4 4 4 3 3 2 0 1 1 2 2 1 1 0 1 1 1 3 4 5 6 5 5 6 6 6 6 6 7 6 7 7 7 7 8 9 8 8 7 6 7 7 8 8 7 9 9 10 10 10 7 7 6 7 4 5 6 6 6 6 5 6 3 4 4 4 5 5 4
4 5 6 6 4 3 3 5 5 5 4 3 2 3 3 2 0 1 1 3 3 4 5 5 5 6 6 6 7 6 6 6 5 5 6 5 6 6 7 8 7 7 6 6 6 6 7 8 8 7 8 8 9 10 9 10 8 8 6 7 6 5 6 6 5 6 5 3 4 3 4 4 5 3
8 8 7 7 7 7 6 5 4 4 3 5 7 7 5 3 3 3 3 3 3 5 5 5 6 6 6 6 6 6 6 6 7 6 6 6 7 6 7 8 7 5 6 7 8 7 8 8 8 8 9 8 8 10 9 10 9 7 6 6 7 5 6 7 7 5 4 5 4 4 5 4 5 3
5 6 6 6 7 8 8 8 6 6 5 5 5 4 4 3 3 3 3 3 4 4 5 5 6 6 6 6 5 6 6 7 7 6 7 6 7 6 6 7 8 7 7 7 7 7 7 7 8 7 9 8 8 9 9 9 10 8 7 6 6 7 3 2 3 4 4 5 4 3 4 4 4 4
6 6 6 7 5 5 6 5 5 5 4 4 4 4 3 3 3 3 4 4 2 4 5 6 5 5 5 6 6 7 7 7 7 6 7 6 8 6 7 8 8 8 8 6 7 6 7 7 8 7 8 9 9 9 8 9 9 9 9 8 8 7 5 6 6 6 6 4 4 5 5 4 4 4
5 6 6 5 5 5 4 4 4 4 5 3 3 3 4 3 4 4 3 4 5 5 5 6 6 7 6 7 6 7 7 7 7 6 7 7 7 7 7 9 9 9 9 9 8 7 5 6 7 9 9 9 9 10 9 10 9 8 9 8 6 7 6 7 6 7 4 3 5 5 6 4 4 4
6 5 5 4 5 4 4 3 2 2 2 2 3 4 3 3 4 5 4 5 5 5 5 5 6 7 7 7 7 7 8 8 7 7 8 8 7 8 8 9 9 8 9 9 9 9 7 6 6 7 8 8 9 10 10 10 10 9 8 6 6 8 8 7 7 7 6 6 6 5 3 4 3 4
5 5 6 4 4 2 2 2 1 1 1 2 2 4 4 3 4 5 5 5 5 5 5 6 6 6 6 7 7 8 8 8 8 8 7 7 7 8 8 9 9 9 9 9 8 8 7 7 6 7 7 7 8 8 11 11 9 10 8 8 8 8 9 6 6 6 6 5 3 5 4 4 4 3
5 5 6 4 2 1 2 0 1 1 2 3 3 4 5 6 4 4 5 5 5 6 6 6 7 7 7 7 8 8 8 8 8 8 8 7 7 8 8 9 9 9 9 9 8 7 6 7 6 7 8 8 7 9 6 12 15 9 8 7 6 7 7 6 6 5 4 4 4 5 4 4 5 2
5 4 4 4 1 1 1 1 1 2 3 4 4 4 4 5 6 5 6 5 5 5 6 6 7 7 7 8 8 8 8 8 9 8 8 8 8 8 9 9 9 9 9 8 7 7 6 7 7 8 9 9 9 9 8 1 10 13 8 7 7 6 6 4 3 4 4 4 4 5 5 4 2 1
6 4 3 2 1 0 0 1 1 2 4 4 4 5 4 5 6 6 6 5 6 6 6 6 7 7 7 7 8 8 8 8 8 9 8 8 8 8 8 8 8 8 8 8 7 7 7 7 7 8 8 9 8 8 9 5 3 4 7 8 7 7 3 3 4 4 4 1 2 1 1 2 2 2
6 5 4 2 1 0 1 2 1 2 4 5 4 5 6 6 6 6 5 6 6 6 7 7 7 7 8 8 8 8 8 8 8 8 8 8 8 8 8 8 9 8 8 8 7 7 7 8 8 8 8 8 9 7 6 6 7 5 3 3 4 5 5 4 5 4 2 1 3 4 4 4 6 7
4 4 4 3 0 0 1 2 2 3 4 4 5 5 5 6 6 6 6 7 7 7 7 8 9 9 8 8 8 8 8 9 9 8 8 8 8 9 9 8 8 8 8 9 8 7 7 8 7 8 8 8 8 8 7 6 6 6 6 7 9 9 7 4 3 3 2 2 4 5 5 3 3 2
5 4 2 1 0 1 1 2 3 3 4 5 5 5 5 6 6 6 6 7 7 8 8 8 8 9 8 9 8 8 8 8 8 8 8 8 9 9 10 10 9 8 8 9 9 9 9 8 8 10 9 7 6 4 5 5 7 6 5 5 4 6 7 6 5 5 3 4 4 4 4 3 3 3
4 3 2 1 1 2 2 3 4 4 5 5 5 6 6 6 6 8 9 9 8 7 8 8 8 8 8 8 8 8 8 8 8 9 9 8 8 8 9 8 8 8 8 9 9 9 8 4 5 5 5 5 5 6 7 6 6 6 4 2 2 4 5 5 12 10 6 8 7 5 4 3 3 3
3 3 2 2 2 2 1 2 3 4 5 5 5 6 6 7 7 7 7 7 7 7 7 8 8 8 8 8 8 7 8 8 8 8 9 8 8 8 8 8 8 8 8 9 8 8 8 6 4 5 5 5 6 6 7 6 5 5 3 1 1 3 4 8 9 8 8 7 7 4 2 3 5 3
3 3 2 2 1 1 2 3 4 4 5 5 5 5 6 6 7 7 7 7 8 8 8 8 8 8 8 8 8 8 8 8 8 8 8 8 8 8 8 8 8 8 8 8 8 8 7 6 5 5 5 5 5 6 7 5 6 4 3 1 2 2 4 4 6 9 10 12 11 10 8 5 2 2
2 2 2 1 1 3 3 3 4 5 5 5 5 5 6 6 7 7 7 7 7 8 8 8 8 8 8 8 8 8 8 8 8 8 8 8 7 7 7 8 8 8 8 7 6 7 6 5 4 3 4 5 4 5 5 5 4 2 2 3 4 3 2 2 4 6 6 5 8 6 7 8 12 16
Wind_Direction
107 90 90 108 100 59 101 82 76 82 71 82 98 88 92 128 120 62 36 339 21 336 23 41 343 20 15 11 11 19 20 11 11 11 12 9 4 353 355 357 353 350 346 340 336 332 328 327 325 321 317 319 318 313 307 300 288 284 277 268 261 245 241 245 240 240 238 239 237 233 223 217 207 212
108 102 77 81 65 37 67 66 82 92 107 89 80 87 100 104 100 139 92 347 228 332 336 39 11 356 5 7 8 13 6 6 11 7 8 3 1 353 1 2 1 360 354 347 342 337 334 335 336 333 327 320 317 313 310 306 296 287 283 274 263 258 250 247 247 248 244 240 240 243 239 223 214 213
120 113 104 100 80 68 73 55 49 54 63 86 95 83 77 61 113 123 123 71 299 160 18 326 20 9 349 7 10 8 7 6 7 7 4 3 358 8 7 7 9 11 9 6 5 1 355 347 341 336 329 323 316 311 309 305 305 305 299 287 272 259 254 250 245 250 252 254 252 252 254 241 232 225
112 106 93 86 98 86 74 59 50 53 53 70 72 76 76 64 72 111 110 113 300 294 19 351 341 18 356 10 19 11 8 5 11 11 13 8 12 19 10 7 13 11 11 9 12 17 16 10 0 352 345 340 334 331 326 319 316 314 308 302 294 286 277 264 251 244 244 243 247 251 252 251 245 239
95 93 96 80 60 78 81 67 54 58 66 68 70 71 74 63 43 75 97 82 21 311 314 354 1 349 8 18 19 16 8 6 360 9 21 16 24 20 12 3 11 10 8 10 14 19 20 18 14 7 360 353 348 344 340 334 326 317 312 308 304 299 295 290 283 271 259 253 251 250 249 247 244 241
107 122 113 93 67 87 101 87 73 82 71 72 67 52 73 65 49 28 82 73 64 336 310 7 344 13 10 34 13 19 5 359 357 17 14 15 23 18 8 7 7 7 12 20 26 28 26 24 20 14 10 8 6 3 358 353 345 335 328 324 319 313 310 303 301 297 295 287 273 265 259 249 243 242
137 127 142 174 173 108 83 76 99 96 92 90 91 83 77 83 61 40 58 77 33 15 329 348 12 16 356 32 6 6 359 351 1 25 19 7 13 16 10 5 2 1 10 20 27 25 22 20 17 14 10 10 13 12 8 4 1 356 350 344 338 328 314 299 292 291 290 288 286 282 281 278 268 255
161 157 154 191 188 132 107 117 100 88 95 98 105 97 90 99 99 84 70 71 106 75 16 323 28 2 4 355 1 6 3 7 6 18 359 6 24 12 9 4 359 351 1 15 20 18 17 14 11 10 6 5 8 8 4 0 358 0 360 2 358 347 321 299 286 281 277 276 280 277 268 269 275 277
172 170 175 187 183 153 121 135 130 132 106 109 102 105 115 107 112 84 81 80 81 93 48 327 307 1 359 355 350 13 1 353 3 8 9 356 3 2 6 356 349 341 356 5 10 10 8 6 3 1 359 356 2 0 355 351 347 347 351 358 356 348 338 319 301 285 276 269 264 266 270 265 262 262
187 181 188 182 181 173 160 176 155 131 134 135 118 113 104 108 102 95 86 88 76 74 66 42 354 353 10 353 9 9 3 353 349 352 354 357 9 3 352 355 346 340 347 347 356 360 1 358 354 354 352 350 352 350 345 341 335 332 336 343 340 336 330 322 310 294 282 273 265 260 260 262 261 261
197 194 187 186 188 186 179 163 167 151 125 113 119 127 127 111 85 71 63 64 64 62 41 12 64 349 336 20 339 353 351 343 26 359 345 346 358 3 356 335 338 331 334 343 350 350 347 345 348 345 346 346 346 343 341 336 331 325 327 329 328 325 322 318 313 304 292 283 272 263 256 254 258 261
205 202 197 194 194 191 185 175 171 155 147 129 117 140 114 110 94 93 88 69 67 52 41 30 341 350 316 334 274 277 332 359 15 28 359 333 336 339 340 329 323 325 351 341 345 344 343 341 340 341 339 340 340 340 339 335 329 327 326 325 322 319 315 313 311 308 302 293 286 278 270 263 256 258
223 220 212 209 201 199 190 186 171 169 155 146 146 181 140 128 121 119 102 109 90 68 46 357 354 353 352 349 350 352 5 7 330 319 6 312 320 323 322 322 282 289 342 339 336 339 345 334 333 332 332 332 336 334 335 328 326 324 324 323 322 319 316 313 310 307 301 294 286 278 272 267 262 258
223 227 222 219 209 201 192 181 169 159 159 159 156 165 165 151 140 142 134 127 127 109 68 325 349 353 336 327 341 328 312 313 321 336 347 332 318 321 312 304 211 349 32 344 333 326 330 322 313 321 320 314 329 326 328 321 318 319 321 323 325 327 324 319 313 307 299 292 283 275 269 265 262 258
218 224 227 228 214 201 184 173 166 163 164 159 155 160 167 164 153 151 143 155 150 145 173 179 139 241 287 291 251 270 287 318 336 327 332 324 329 341 347 326 327 96 12 340 325 311 321 299 301 310 306 307 317 316 311 311 313 314 317 324 330 332 329 325 321 316 310 299 288 280 273 269 265 261
221 221 219 216 198 189 183 163 163 158 154 153 159 163 165 169 172 164 161 154 142 152 162 188 221 190 248 269 307 283 349 321 328 311 315 309 323 320 316 296 295 309 13 332 317 302 315 266 276 290 288 298 305 302 303 306 307 310 318 327 331 332 328 323 320 318 314 309 300 291 286 281 274 267
225 213 200 197 199 189 164 155 156 151 151 143 133 135 138 131 112 70 47 58 150 159 144 177 220 192 199 263 262 44 324 315 319 324 323 310 290 276 283 287 299 304 340 319 305 303 318 320 278 282 287 277 280 296 302 303 306 311 323 325 325 324 325 324 321 317 313 308 302 297 293 288 284 278
225 210 199 189 184 162 158 153 151 145 147 153 128 111 98 94 75 87 113 90 84 115 156 158 190 201 138 205 223 262 194 327 301 306 294 294 293 287 274 282 285 292 304 287 292 292 309 312 301 284 277 274 284 278 282 291 298 311 321 319 319 324 328 329 326 320 317 312 306 298 294 294 293 286
221 207 195 187 171 159 161 163 166 158 162 144 128 119 87 65 65 67 56 80 136 120 118 138 163 192 187 190 222 235 220 222 238 242 261 277 279 281 291 280 255 276 264 262 276 284 310 314 305 294 293 293 283 273 281 282 285 305 309 309 319 327 335 335 335 327 321 320 319 321 323 316 302 290
216 179 171 162 159 166 165 176 171 151 135 128 121 104 94 89 80 64 41 77 96 110 126 141 159 181 195 215 229 252 253 253 252 277 301 312 283 300 309 302 311 297 282 266 271 281 291 291 292 299 296 293 288 282 275 276 283 292 300 312 327 328 327 327 331 327 323 322 325 329 334 330 322 305
81 139 157 141 143 134 114 129 141 133 122 113 115 114 98 87 91 89 65 68 82 100 112 133 162 229 248 261 264 265 269 258 261 256 347 303 311 334 312 299 304 286 313 272 259 275 292 279 281 290 287 283 284 284 275 270 276 285 299 323 325 319 315 310 323 327 324 322 325 331 333 332 329 316
43 49 94 116 119 112 101 107 103 110 112 103 109 110 104 70 29 332 250 142 114 68 131 145 185 220 254 305 325 320 318 317 323 336 293 274 332 299 288 292 302 300 301 271 254 283 262 286 271 283 278 283 263 259 263 265 284 297 318 313 310 312 307 303 305 310 316 317 324 331 332 332 333 322
56 49 44 70 90 96 98 90 87 84 89 102 112 129 118 123 189 254 261 28 355 356 2 346 2 341 343 343 333 317 315 309 305 266 244 267 266 273 278 282 303 312 275 259 344 317 301 314 280 278 310 303 258 249 271 304 302 308 296 298 305 300 300 301 304 300 300 309 323 337 341 338 337 319
52 58 67 73 90 93 89 87 86 86 100 114 130 114 109 146 238 245 124 190 164 292 323 299 321 303 309 318 319 312 303 298 286 277 260 242 234 250 265 267 259 262 264 254 310 288 284 255 291 305 301 304 303 311 296 278 264 269 282 292 297 294 301 308 310 304 293 298 311 325 331 334 329 314
101 86 84 81 91 96 98 99 101 101 101 107 125 118 142 185 167 123 100 296 347 315 308 315 319 311 311 307 301 292 290 284 282 279 271 256 233 235 255 266 266 263 258 265 270 276 286 307 299 301 281 266 282 296 271 245 256 244 257 272 277 284 289 294 292 293 299 303 304 313 323 341 337 315
99 113 114 110 111 105 104 104 100 96 87 78 88 128 140 131 129 162 196 202 230 244 271 281 286 288 292 292 292 286 278 275 275 270 269 268 260 241 229 242 264 278 278 259 269 280 289 289 289 295 291 288 283 277 293 278 257 249 245 258 245 256 264 271 281 284 287 292 305 320 314 315 320 326
121 115 113 118 112 102 107 105 107 111 127 128 144 151 153 171 202 202 192 202 214 244 255 254 272 274 273 276 273 273 275 270 266 266 263 262 261 260 254 246 237 251 266 269 264 268 269 277 276 279 287 287 287 290 277 291 287 280 284 263 261 259 259 248 261 268 274 284 295 313 314 308 307 306
126 128 135 131 130 112 101 93 92 112 122 131 108 224 249 258 205 191 186 257 270 319 320 311 297 289 279 276 281 271 263 266 266 269 268 265 262 261 263 261 264 261 264 257 251 243 249 265 274 266 273 281 283 285 290 276 279 277 275 262 260 270 267 249 253 263 270 279 291 302 324 317 316 331
118 125 122 112 106 84 83 81 77 74 72 56 34 16 357 9 62 23 354 341 356 333 302 289 286 284 276 266 268 274 278 282 290 286 279 273 272 272 271 269 267 271 269 269 262 253 254 262 270 272 269 271 274 278 280 287 288 283 272 280 287 264 259 253 235 243 262 266 255 265 265 268 287 290
103 102 96 94 94 91 92 88 79 76 69 72 60 57 57 48 33 20 4 336 324 297 290 286 283 278 282 281 275 282 288 289 280 280 283 289 288 285 286 289 277 263 258 258 259 260 260 263 264 267 269 265 267 276 279 286 280 278 269 265 270 273 261 251 251 245 246 252 246 244 253 224 239 242
90 82 85 94 96 97 88 82 76 66 50 45 30 24 19 18 5 349 340 303 290 287 283 280 276 275 275 283 298 287 287 287 282 272 278 279 277 278 276 279 283 279 262 256 256 255 255 256 258 259 265 268 266 266 274 270 276 277 273 268 265 259 257 243 249 246 235 240 239 253 268 272 267 242
104 103 95 82 70 68 57 51 45 36 42 49 31 8 360 349 335 320 311 304 276 264 259 268 276 283 289 293 288 293 288 282 282 279 275 274 281 278 285 280 279 280 280 274 269 250 245 247 253 255 254 262 266 269 266 265 268 271 268 255 249 255 251 251 254 251 243 240 253 254 247 232 242 256
88 82 76 75 63 58 68 51 37 20 17 358 356 350 336 332 326 317 322 308 296 289 300 296 295 296 297 292 288 285 283 277 280 272 271 269 273 277 268 271 278 279 281 282 277 270 241 245 241 248 254 256 254 257 263 268 262 260 260 262 263 259 253 245 241 252 250 219 239 253 267 248 228 237
97 85 91 79 92 88 85 69 37 1 351 334 330 319 309 310 308 302 295 291 289 296 290 289 295 294 294 291 291 288 285 285 279 278 278 281 276 276 271 273 273 273 272 274 277 279 278 258 251 250 250 252 251 250 250 258 266 268 265 268 255 261 253 248 246 247 238 229 239 252 251 261 251 246
93 112 102 98 87 99 104 106 2 283 324 312 312 306 306 302 303 303 301 291 292 294 297 294 288 285 284 285 286 284 284 283 281 276 268 265 265 263 267 269 272 272 272 273 272 274 277 278 275 274 268 264 265 256 236 238 258 256 261 251 248 251 260 251 253 253 237 243 207 232 243 250 257 247
94 111 120 117 122 128 73 329 308 308 308 298 307 313 328 316 299 298 299 294 295 295 294 291 290 287 283 282 281 280 278 278 277 276 275 268 265 263 261 261 265 267 265 266 268 269 266 269 267 273 282 279 276 279 275 215 220 239 244 256 250 249 256 258 251 249 236 228 210 212 224 227 242 201
117 118 120 136 142 112 65 299 299 299 303 309 315 311 303 305 303 295 281 274 275 273 279 284 282 282 281 279 278 276 275 274 276 276 273 272 267 266 267 265 262 264 266 263 262 265 258 261 256 256 269 275 275 274 272 290 235 231 230 246 258 248 248 255 253 259 240 223 220 204 213 204 220 145
132 126 114 120 140 217 238 279 323 317 309 312 308 304 294 284 288 287 286 289 290 287 285 283 280 281 279 279 281 280 277 273 272 273 272 270 270 268 265 270 272 268 268 268 262 259 250 251 251 248 252 262 269 268 284 265 242 267 232 225 247 263 241 233 252 251 269 227 224 204 115 124 128 115
130 138 143 149 179 185 326 297 276 291 302 307 308 305 303 301 294 293 295 291 293 293 294 292 290 288 285 283 278 277 279 280 278 275 275 272 268 272 273 272 274 270 270 270 262 255 247 245 244 244 242 252 257 266 269 278 274 268 290 232 221 260 266 246 259 266 230 150 74 61 53 83 91 83
139 134 143 132 195 237 259 283 295 282 299 300 300 297 296 294 295 298 302 300 300 299 297 294 292 292 287 282 280 278 274 273 273 274 274 275 273 270 269 269 269 273 272 271 270 262 252 248 241 242 239 240 248 254 261 269 277 279 275 269 237 231 252 229 238 230 224 159 140 127 130 133 94 8
128 113 150 151 175 265 245 270 278 298 299 300 299 294 293 292 296 294 291 297 301 305 304 299 293 287 285 284 283 281 280 279 277 276 275 274 272 270 269 270 271 267 270 271 270 268 259 252 245 240 239 248 253 275 279 258 263 266 263 265 267 242 245 233 232 223 203 151 150 131 128 117 117 99
136 151 195 183 192 246 234 274 297 304 303 302 304 306 304 298 289 293 302 305 301 299 298 295 291 290 287 285 283 281 279 278 280 278 275 273 272 271 268 266 265 266 260 265 267 266 268 264 254 248 242 239 240 238 247 252 262 270 269 301 317 338 336 279 231 229 170 156 152 138 110 81 63 89
140 160 187 226 236 254 275 287 293 304 306 309 306 304 306 305 306 306 308 306 306 303 297 296 294 292 289 288 287 284 282 279 277 276 276 273 271 270 271 267 263 263 261 263 266 270 274 271 251 239 234 220 226 223 243 245 252 260 260 276 341 7 21 32 66 91 95 87 73 86 115 146 144 157
171 168 208 230 247 294 300 294 314 320 308 304 302 307 308 308 304 303 304 303 305 304 303 300 299 297 294 292 290 286 281 280 280 281 279 277 272 269 268 269 267 264 262 261 267 267 268 266 250 229 229 226 221 222 235 240 252 249 234 158 90 92 89 69 68 64 61 52 55 68 69 82 133 160
172 176 211 258 282 287 295 321 331 317 312 310 314 314 312 308 302 303 302 302 303 303 303 300 299 299 298 297 296 291 288 283 283 279 277 276 275 274 271 269 270 267 264 260 261 269 267 262 248 215 223 231 217 218 230 228 243 230 165 140 126 100 80 77 91 84 71 71 13 29 96 89 95 99